Flag Weather past 2 weeks in Öhringen, Baden-Württemberg, Germany

Now
39 °F

Fog.


Feels Like: 39 °F
Forecast: 32 / 44 °F
Wind: 2 mph from East

Location: Oehringen

Current Time: Nov 28, 2014 at 2:39:51 AM

Latest Report: Nov 28, 2014 at 2:00 AM


Visibility: 2 mi

Pressure: 29.86 "Hg

Humidity: 87%

Dew point: 36 °F

Location of ÖhringenLocation

Historic Weather in Öhringen — Graph

°F

Öhringen temperature yesterday

Maximum temperature yesterday: 43 °F (at 1:00 PM)
Minimum temperature yesterday: 40 °F (at 7:00 AM)
Average temperature yesterday: 41 °F

Past Weeks' High & Low Weather Summary

 TemperatureHumidityPressure
High54 °F (Nov 22, 2:00 PM)100% (Nov 13, 6:00 AM)30.35 "Hg (Nov 13, 6:00 AM)
Low36 °F (Nov 21, 8:00 AM)69% (Nov 22, 1:00 PM)29.50 "Hg (Nov 16, 1:00 AM)
Average44 °F89%29.99 "Hg
* Reported Nov 13 1:00 AM — Nov 28 1:00 AM, Öhringen, Weather by CustomWeather, © 2014

Note: Actual official high and low records may vary slightly from our data, if they occured in-between our weather recording intervals... More about our weather records

Advertising

Öhringen weather history for previous 24 hours

 ConditionsComfort  
Time TempWeatherWind HumidityBarometerVisibility
1:00 AM
Nov 28
40 °FFog.3 mph86%29.86 "Hg3 mi
12:00 AM41 °FFog.2 mph86%29.86 "Hg2 mi
11:00 PM
Nov 27
42 °FFog.2 mph85%29.86 "Hg3 mi
10:00 PM41 °FFog.2 mph87%29.86 "Hg3 mi
9:00 PM41 °FFog.3 mph86%29.85 "Hg3 mi
8:00 PM42 °FFog.5 mph85%29.86 "Hg3 mi
7:00 PM41 °FFog.3 mph86%29.85 "Hg3 mi
6:00 PM41 °FFog.3 mph86%29.83 "Hg3 mi
5:00 PM42 °FFog.5 mph84%29.84 "Hg3 mi
4:00 PM42 °FFog.3 mph84%29.83 "Hg3 mi
3:00 PM43 °FFog.3 mph83%29.83 "Hg4 mi
2:00 PM43 °FFog.5 mph83%29.83 "Hg3 mi
1:00 PM43 °FFog.3 mph81%29.84 "Hg4 mi
12:00 PM42 °FFog.3 mph83%29.85 "Hg4 mi
11:00 AM42 °FFog.3 mph84%29.86 "Hg3 mi
10:00 AM41 °FFog.3 mph88%29.88 "Hg2 mi
9:00 AM40 °FFog.3 mph90%29.88 "Hg2 mi
8:00 AM40 °FFog.2 mph91%29.88 "Hg2 mi
7:00 AM40 °FFog.3 mph92%29.88 "Hg2 mi
6:00 AM40 °FFog.2 mph91%29.89 "Hg2 mi
5:00 AM40 °FFog.2 mph91%29.90 "Hg2 mi
4:00 AM40 °FFog.2 mph91%29.91 "Hg2 mi
3:00 AM40 °FFog.2 mph91%29.93 "Hg2 mi
2:00 AM40 °FFog.2 mph89%29.94 "Hg2 mi
Weather by CustomWeather, © 2014

See weather overviewHow to use our weather pages